Погода в Сутуре

Погода в Сутуре : погода сейчас, прогноз погоды и архив. Всё, что Вы хотите узнать о погоде в Сутуре!

Поиск расширенной информации на нашем сайте:

Полезная информация: бухгалтерское обслуживание в строительстве

Другие новости

Новости СМИ2

Главная страница сайта

Новости сайта

02.10.2013

Напоминаем, что на нашем новом сайте вы можете получить высокодетализированные прогнозы погоды по пунктам России, СНГ и мира (включающие важные для авиации метеовеличины, такие как направление и скорость ветра, видимость, явления погоды, количество и форма облачности, нижняя и верхняя граница облачности), а также ознакомиться с разнообразными материалами по авиационной метеорологии и подборкой полезных ссылок на эту тему.

Сайт Метеоцентр.Азия посвящён разработке технологий оптимизации авиаметеорологического обслуживания, включая проектирование и перспективное создание нескольких автоматизированных авиаметеорологических систем:
- система выпуска высокодетальных прогностических карт явлений погоды для нижнего воздушного пространства по России и ближнему зарубежью;
- система верификации прогнозов TAF (выпускаемых синоптиками официальных АМСГ РФ и ближнего зарубежья) и AUTOTAF (выпускаемых сайтом Метеоцентр.Азия) - выявление ошибок, онлайн-сопоставление с фактической погодой METAR, автоматическое внесение коррективов в прогнозы при резком отклонении фактической погоды от прогноза, подсчёт оправдываемости прогнозов по элементам и в целом;
- система обработки, анализа и отображения авиаметеорологической информации для применения провайдерами метеорологической информации.

Рекомендуем: технические характеристики ВВГнг 4х150

Погода в Сутуре - сегодня

Время (UTC), дата Ветер
(°,м/с) 
Видим.   Явления Облачность Т
(°С)
Тd
(°С)
f(%) Тe
(°С)
Pmin
(гПа)
dP
(гПа)
Po
(мм)
O2
(г/м3)
Тmin Tmax R s Состояние
почвы
03 25.05.17 270 (З) 20000 м  {туман}  3/3 1000 м 
[Cu hum]
+16 +6.7 54 +17  1010.3  -0.7  728  276           
06 25.05.17 230 (ЮЗ) 20000 м  {туман}  4/4 1000 м 
[Cu hum]
+19.7 +2.3 31 +21  1008  -1.7  727  273           
09 25.05.17 220 (ЮЗ) 20000 м    3/0 средняя 
[Ac lent]
+19.8 +1.9 30 +21  1007.5  -0.5  726  272    +20.6       
12 25.05.17 180 (Ю) 20000 м    ясно 
+14.6 +2 42 +15  1009.7  1.4  727  278           
15 25.05.17 140 (ЮВ) 20000 м    ясно 
+10.3 +4.8 69 +11  1011.7  1.4  728  282           
18 25.05.17 350 (С) 20000 м    ясно 
+2.9 +2.3 96 +4  1013.1  0.2  728  290           
21 25.05.17 тихо ()   20000 м    ясно 
+3.1 +2 92 +3  1013.3  0.2  729  290  +1.7        сухая 
00 26.05.17 240 (ЮЗ) 20000 м    ясно 
+13.7 +6.1 60 +15  1011.4  -0.3  728  278           
03 26.05.17 240 (ЮЗ) 20000 м    3/3 1000 м 
[Cu med, cong]
+20.5 +2.6 31 +21  1009.2  -1.2  728  272           
06 26.05.17 250 (З) 20000 м    4/4 1000 м 
[Cu hum]
+23.5 +0.5 22 +24  1007  -1.8  726  269           
09 26.05.17 300 (СЗ) 20000 м    3/0 средняя 
[Ac lent]
+22.4 +0.9 24 +22  1006.4  -0.6  726  270    +23.7       
12 26.05.17 010 (С) 20000 м    ясно 
+12.9 +3.9 54 +14  1008.7  0.9  726  279           
15 26.05.17 040 (СВ) 20000 м    ясно 
+8 +4 76 +9  1010  0.5  727  284           
18 26.05.17 010 (С) 20000 м    ясно 
+3.1 +2.1 93 +4  1011  0.3  727  289           
00 27.05.17 тихо ()   20000 м    ясно 
+14.9 +5.8 54 +15  1009.8  -0.2  727  277           
03 27.05.17 300 (СЗ) 20000 м    4/0 верхняя 
[Ci fib]
+23.4 +2.5 25 +23  1006.8  -1.8  726  269           
06 27.05.17 270 (З) 20000 м    4/0 верхняя 
[Ci fib]
+25.4 +2.6 23 +25  1003.9  -2.5  724  267           
12 27.05.17 190 (Ю) 20000 м    3/0 верхняя 
[Ci fib]
+18.2 +5.7 44 +19  1003.8  0.3  723  272           
15 27.05.17 050 (СВ) 20000 м    4/0 верхняя 
[Ci fib]
+9.1 +6.8 85 +10  1005.3  0.3  724  281           
18 27.05.17 350 (С) 20000 м    ясно 
+7 +5.8 92 +8  1004.8  -0.8  723  283           
00 28.05.17 350 (С) 20000 м    ясно 
+17.6 +8.6 56 +19  1002  -1.3  722  272           
03 28.05.17 190 (Ю) 4{10}  20000 м    3/0 верхняя 
[Ci fib]
+25.9 +5.1 26 +26  997.7  -3.1  720  264           
06 28.05.17 200 (Ю) 4{11}  20000 м    9/3 1000 м верхняя 
[Cu hum|Ci fib]
+27.2 +3.3 21 +27  993.9  -3.4  717  262           
03 29.05.17 250 (З) 3{10}  20000 м    9/4 600 м кучево-дожд., средняя 
[Cb cap|Ac lent]
+13 -2.1 35 +13  998.6  -1.1  719  277           
12 29.05.17 180 (Ю) 20000 м    9/6 600 м кучево-дожд., средняя 
[Cb cap|Ac lent]
+9.3 -1.7 46 +10  999.2  719  280           
Время (UTC), дата Ветер
(°,м/с) 
Видим.   Явления Облачность Т
(°С)
Тd
(°С)
f(%) Тe
(°С)
Pmin
(гПа)
dP
(гПа)
Po
(мм)
O2
(г/м3)
Тmin Tmax R s Состояние
почвы

Для получения пояснительной информации подведите курсор к названию столбца.

ПОГОДА в Сутуре - архив

Всё, что Вы хотите узнать о погоде в Сутуре - удобно и подробно!

Выберите нужную дату (начиная с 1 января 2015* года) и нажмите кнопку "Найти".
Будут отображены архивные сводки погоды по пункту Сутур, начиная с указанной даты.


Отображать данные в формате CSV (для использования в таблицах Excel)


Внимание! Наш архив погоды предназначен исключительно для личного некоммерческого использования в познавательных целях. Если Вам необходимы официальные справки о состоянии погоды (для производственных, юридических, коммерческих и т.п. целей), обращайтесь в органы Росгидромета.

*Примечание: данная дата относится к архиву по метеостанциям СССР (Россия, СНГ, Балтия).
Архив по метеостанциям Зарубежной Европы и Азии (кроме Китая) хранится 10 дней, по другим регионам земного шара (Китай, Африка, Америка, Австралия, Океания) - 1 день.

Сутур - район местоположения метеостанции


Название, широта, долгота, высота метеостанции:
Сутур 50.1°ш. 132.1°д. 347 м над ур. моря [Российская Федерация]

Дополнительная информация

В oтличие oт бoльшинства пoгoдных сайтoв мы публикуем пoдрoбную метеoинфoрмацию в детальнoм прoфессиoнальнoм фoрмате.

Характеристики температуры и влажнoсти вoздуха измеряются на высoте 2 м в тени вдали oт зданий и деревьев.
Скoрoсть ветра измеряется на высoте 10 м (на урoвне рoста челoвека скoрoсть ветра ниже в 1.5-2 раза). Если метеoстанция нахoдится в гoрoде или в лесу, тo скoрoсть ветра занижена на 2-4 м/с пo сравнению с oткрытым местoм. Скoрoсть ветра над акватoриями крупных рек и oзёр, а также на вершинах хoлмoв на 2-5 м/с выше, чем в oбычных услoвиях.
Атмoсфернoе давление в разных тoчках местнoсти мoжет значительнo oтличаться oт давления на метеoстанции, в зависимoсти oт услoвий рельефа (при пoдъёме на 10 м давление пoнижается примернo на 1 мм рт.ст.).